Regional Weather Roundup
Issued by NWS Sterling, VA

Home | Current Version | Previous Version | Graphics & Text | Print | Product List | Glossary On
Versions: 1 2 3 4 5 6 7 8 9 10 11 12 13 14 15 16 17 18 19 20 21 22 23 24 25 26 27 28
000
ASUS41 KLWX 231611
RWRLWX

REGIONAL WEATHER ROUNDUP
NATIONAL WEATHER SERVICE BALTIMORE MD/WASHINGTON DC
1100 AM EST THU NOV 23 2017

Note: "FAIR" indicates few or no clouds below 12,000 feet
with no significant weather and/or obstructions to visibility.
 TC=TEMPERATURE CELSIUS

 * =Non NWS site. Station does not report precipitation (e.g. rain,
    snow, etc.), thunder, or fog.

DCZ001-MDZ009-015-VAZ040>042-051-053>054-231700-
WASHINGTON METRO

CITY           SKY/WX    TMP DP  RH WIND       PRES   REMARKS
WASHINGTON NAT MOSUNNY   41  24  51 VRB7      30.18F
DULLES         MOSUNNY   39  22  50 N5        30.17F
ANDREWS AFB    SUNNY     39  21  48 W6        30.15F
FT BELVOIR     SUNNY     41  21  44 NW5       30.17F
COLLEGE PARK*  SUNNY     39  22  51 W6        30.17F
LEESBURG*      SUNNY     39  27  60 NW6       30.16F
MANASSAS*      SUNNY     40  22  48 N7        30.18F
GAITHERSBURG*  SUNNY     38  22  52 VRB3      30.15F

$$

MDZ006>007-011-014-231700-
BALTIMORE METRO

CITY           SKY/WX    TMP DP  RH WIND       PRES   REMARKS
BWI AIRPORT    MOSUNNY   39  23  52 CALM      30.15F
MD SCIENCE CTR   N/A     40  21  46 MISG      30.18S
MARTIN STATE   MOSUNNY   41  25  52 NW8       30.18F
FORT MEADE*    SUNNY     39  25  56 NW5       30.19F

$$

MDZ012-015-019>023-231700-
MARYLAND EASTERN SHORE

CITY           SKY/WX    TMP DP  RH WIND       PRES   REMARKS
OCEAN CITY     PTSUNNY   39  25  57 NW8       30.16F
SALISBURY      PTSUNNY   39  25  57 NW3       30.15F
CAMBRIDGE*     SUNNY     39  23  52 N8        30.17F
EASTON*        MOSUNNY   39  21  48 N7        30.19F

$$

MDZ017>025-231700-
SOUTHERN MARYLAND

CITY           SKY/WX    TMP DP  RH WIND       PRES   REMARKS
PATUXENT RIVER PTSUNNY   39  23  52 NW8       30.17F
ST INIGOES     PTSUNNY   40  23  50 NW6       30.17F
LEONARDTOWN*   PTSUNNY   36  23  60 CALM      30.19F

$$

MDZ003>005-231700-
NORTH CENTRAL MARYLAND

CITY           SKY/WX    TMP DP  RH WIND       PRES   REMARKS
FREDERICK*     SUNNY     39  19  45 VRB7      30.19F
HAGERSTOWN APT SUNNY     37  22  54 VRB6      30.14F
WESTMINSTER*   SUNNY     36  23  60 NW7       30.13F

$$

MDZ501>502-231700-
WESTERN MARYLAND

CITY           SKY/WX    TMP DP  RH WIND       PRES   REMARKS
OAKLAND*       SUNNY     30  21  69 W5        30.01S
CUMBERLAND*    SUNNY     37  21  52 CALM      30.18F

$$

VAZ025>031-231700-
SHENANDOAH VALLEY

CITY           SKY/WX    TMP DP  RH WIND       PRES   REMARKS
WINCHESTER*    SUNNY     34  21  60 CALM      30.14F
FRONT ROYAL*   SUNNY     36  23  60 MISG      30.14F
LURAY*         SUNNY     36  27  69 CALM      30.15F
NEW MARKET*    SUNNY     36  22  56 CALM      30.14F
STAUNTON*      SUNNY     34  24  66 CALM      30.14F
WAYNESBORO*    SUNNY     35  24  65 CALM      30.11F

$$

WVZ021-048>050-054>055-231700-
EASTERN WEST VIRGINIA PANHANDLE

CITY           SKY/WX    TMP DP  RH WIND       PRES   REMARKS
MARTINSBURG    SUNNY     38  20  48 NW5       30.14F
PETERSBURG*    SUNNY     36  23  60 CALM      30.13F

$$

VAZ036>039-050-231700-
CENTRAL FOOTHILLS

CITY           SKY/WX    TMP DP  RH WIND       PRES   REMARKS
CHARLOTTESVILL SUNNY     39  24  55 S7        30.15F
CULPEPER*      SUNNY     40  22  49 NW5       30.19S
ORANGE*        SUNNY     36  25  64 CALM      30.17F
GORDONSVILLE*  SUNNY     38  24  59 S3        30.16F
WARRENTON*     NOT AVBL

$$

VAZ055>057-231700-
NORTH AND CENTRAL PIEDMONT

CITY           SKY/WX    TMP DP  RH WIND       PRES   REMARKS
FREDERICKSBRG* SUNNY     39  26  58 N3        30.18F
STAFFORD*      SUNNY     40  24  52 N9        30.22F

$$

NCZ024-NYZ072-PAZ021-071-VAZ022-071-231700-
OTHER REGIONAL OBSERVATIONS

CITY           SKY/WX    TMP DP  RH WIND       PRES   REMARKS
NEW YORK CITY  SUNNY     36  19  50 MISG      30.12F
PHILADELPHIA   MOSUNNY   37  18  46 NW9       30.14F
PITTSBURGH     PTSUNNY   33  21  61 W5        30.13S
ROANOKE        SUNNY     40  25  55 VRB3      30.14F
RICHMOND       CLOUDY    39  24  55 E5        30.18F
RALEIGH        CLOUDY    43  26  51 NE6       30.18S

$$

ANZ530>537-231700-
MARINE OBSERVATIONS

STATION/POSITION TIME  TEMP    WIND        PRES
                       AIR SEA DIR/SP/G
                 (UTC) (F)     (DEG/KT/KT) (MB)
THOMAS PT LIGHT  1600   36 51  300/  4/  6   N/A
BALT KEY BRIDGE  1536   37     310/  8/ 10 1021.5F
COVE POINT       1536   37     350/ 12/ 14 1022.4F
LEWISETTA        1536   38 49  340/  6/  8 1021.7F
SOLOMONS ISLAND  1536   37 53  340/  7/ 10 1021.5F
PINEY POINT      1548          330/  5/  6   N/A

$$





USA.gov is the U.S. government's official web portal to all federal, state and local government web resources and services.